Time,TemperatureF,DewpointF,PressureIn,WindDirection,WindDirectionDegrees,WindSpeedMPH,WindSpeedGustMPH,Humidity,HourlyPrecipIn,Conditions,Clouds,dailyrainin,SoftwareType,DateUTC
2015-05-24 00:02:00,54.1,45.7,29.92,ESE,121,0.0,0.0,73,0.00,,---,0.00,VWS V13.01,2015-05-24 07:02:00,
2015-05-24 00:07:00,53.9,45.8,29.92,ESE,121,0.0,0.0,74,0.00,,---,0.00,VWS V13.01,2015-05-24 07:07:00,
2015-05-24 00:12:00,53.8,45.7,29.92,ESE,121,0.0,0.0,74,0.00,,---,0.00,VWS V13.01,2015-05-24 07:12:00,
2015-05-24 00:17:00,53.6,45.5,29.93,ESE,121,0.0,0.0,74,0.00,,---,0.00,VWS V13.01,2015-05-24 07:17:00,
2015-05-24 00:22:00,53.6,45.5,29.93,ESE,121,0.0,0.0,74,0.00,,---,0.00,VWS V13.01,2015-05-24 07:22:00,
2015-05-24 00:27:00,53.6,45.5,29.93,ESE,121,0.0,0.0,74,0.00,,---,0.00,VWS V13.01,2015-05-24 07:27:00,
2015-05-24 00:32:00,53.6,45.5,29.93,ESE,121,0.0,0.0,74,0.00,,---,0.00,VWS V13.01,2015-05-24 07:32:00,
2015-05-24 00:37:00,53.5,45.8,29.93,ESE,121,0.0,0.0,75,0.00,,---,0.00,VWS V13.01,2015-05-24 07:37:00,
2015-05-24 00:42:00,53.5,45.8,29.93,ESE,121,0.0,0.0,75,0.00,,---,0.00,VWS V13.01,2015-05-24 07:42:00,
2015-05-24 00:47:00,53.3,45.6,29.92,ESE,121,0.0,0.0,75,0.00,,---,0.00,VWS V13.01,2015-05-24 07:47:00,
2015-05-24 00:52:00,53.2,45.5,29.92,ESE,121,0.0,0.0,75,0.00,,---,0.00,VWS V13.01,2015-05-24 07:52:00,
2015-05-24 00:57:00,53.1,45.8,29.92,ESE,121,0.0,0.0,76,0.00,,---,0.00,VWS V13.01,2015-05-24 07:57:00,
2015-05-24 01:02:00,52.9,45.5,29.92,ESE,121,0.0,0.0,76,0.00,,---,0.00,VWS V13.01,2015-05-24 08:02:00,
2015-05-24 01:12:00,52.8,45.8,29.92,ESE,121,0.0,0.0,77,0.00,,---,0.00,VWS V13.01,2015-05-24 08:12:00,
2015-05-24 01:17:00,52.8,45.8,29.92,ESE,121,0.0,0.0,77,0.00,,---,0.00,VWS V13.01,2015-05-24 08:17:00,
2015-05-24 01:22:00,52.6,45.6,29.92,ESE,121,0.0,0.0,77,0.00,,---,0.00,VWS V13.01,2015-05-24 08:22:00,
2015-05-24 01:27:00,52.5,45.5,29.92,ESE,121,0.0,0.0,77,0.00,,---,0.00,VWS V13.01,2015-05-24 08:27:00,
2015-05-24 01:32:00,52.5,45.5,29.92,ESE,121,0.0,0.0,77,0.00,,---,0.00,VWS V13.01,2015-05-24 08:32:00,
2015-05-24 01:37:00,52.3,45.7,29.92,ESE,121,0.0,0.0,78,0.00,,---,0.00,VWS V13.01,2015-05-24 08:37:00,
2015-05-24 01:42:00,52.2,45.6,29.92,ESE,121,0.0,0.0,78,0.00,,---,0.00,VWS V13.01,2015-05-24 08:42:00,
2015-05-24 01:47:00,52.2,45.9,29.92,ESE,121,0.0,0.0,79,0.00,,---,0.00,VWS V13.01,2015-05-24 08:47:00,
2015-05-24 01:52:00,52.0,45.7,29.92,ESE,121,0.0,0.0,79,0.00,,---,0.00,VWS V13.01,2015-05-24 08:52:00,
2015-05-24 01:57:00,52.0,45.7,29.92,ESE,121,0.0,0.0,79,0.00,,---,0.00,VWS V13.01,2015-05-24 08:57:00,
2015-05-24 02:02:00,52.0,45.7,29.92,ESE,121,0.0,0.0,79,0.00,,---,0.00,VWS V13.01,2015-05-24 09:02:00,
2015-05-24 02:07:00,51.9,45.6,29.92,ESE,121,0.0,0.0,79,0.00,,---,0.00,VWS V13.01,2015-05-24 09:07:00,
2015-05-24 02:12:00,51.7,45.4,29.92,ESE,121,0.0,0.0,79,0.00,,---,0.00,VWS V13.01,2015-05-24 09:12:00,
2015-05-24 02:17:00,51.6,45.6,29.91,ESE,121,0.0,0.0,80,0.00,,---,0.00,VWS V13.01,2015-05-24 09:17:00,
2015-05-24 02:22:00,51.6,45.6,29.91,ESE,121,0.0,0.0,80,0.00,,---,0.00,VWS V13.01,2015-05-24 09:22:00,
2015-05-24 02:27:00,51.6,45.6,29.91,ESE,121,0.0,0.0,80,0.00,,---,0.00,VWS V13.01,2015-05-24 09:27:00,
2015-05-24 02:32:00,51.4,45.5,29.90,ESE,121,0.0,0.0,80,0.00,,---,0.00,VWS V13.01,2015-05-24 09:32:00,
2015-05-24 02:37:00,51.3,45.3,29.90,ESE,121,0.0,0.0,80,0.00,,---,0.00,VWS V13.01,2015-05-24 09:37:00,
2015-05-24 02:42:00,51.3,45.7,29.90,ESE,121,0.0,0.0,81,0.00,,---,0.00,VWS V13.01,2015-05-24 09:42:00,
2015-05-24 02:47:00,51.3,45.7,29.91,ESE,121,0.0,0.0,81,0.00,,---,0.00,VWS V13.01,2015-05-24 09:47:00,
2015-05-24 02:52:00,51.4,45.8,29.91,ESE,121,0.0,0.0,81,0.00,,---,0.00,VWS V13.01,2015-05-24 09:52:00,
2015-05-24 02:57:00,51.4,45.8,29.91,ESE,121,0.0,0.0,81,0.00,,---,0.00,VWS V13.01,2015-05-24 09:57:00,
2015-05-24 03:02:00,51.6,46.0,29.90,ESE,121,0.0,0.0,81,0.00,,---,0.00,VWS V13.01,2015-05-24 10:02:00,
2015-05-24 03:07:00,51.6,46.0,29.90,ESE,121,0.0,0.0,81,0.00,,---,0.00,VWS V13.01,2015-05-24 10:07:00,
2015-05-24 03:12:00,51.6,46.0,29.90,ESE,121,0.0,0.0,81,0.00,,---,0.00,VWS V13.01,2015-05-24 10:12:00,
2015-05-24 03:17:00,51.7,46.1,29.90,ESE,121,0.0,0.0,81,0.00,,---,0.00,VWS V13.01,2015-05-24 10:17:00,
2015-05-24 03:22:00,51.7,46.1,29.90,ESE,121,0.0,0.0,81,0.00,,---,0.00,VWS V13.01,2015-05-24 10:22:00,
2015-05-24 03:27:00,51.9,46.3,29.90,ESE,121,0.0,0.0,81,0.00,,---,0.00,VWS V13.01,2015-05-24 10:27:00,
2015-05-24 03:32:00,51.9,46.3,29.90,ESE,121,0.0,0.0,81,0.00,,---,0.00,VWS V13.01,2015-05-24 10:32:00,
2015-05-24 03:37:00,51.9,46.3,29.90,ESE,121,0.0,0.0,81,0.00,,---,0.00,VWS V13.01,2015-05-24 10:37:00,
2015-05-24 03:42:00,51.9,46.3,29.90,ESE,121,0.0,0.0,81,0.00,,---,0.00,VWS V13.01,2015-05-24 10:42:00,
2015-05-24 03:47:00,51.9,46.3,29.90,ESE,121,0.0,0.0,81,0.00,,---,0.00,VWS V13.01,2015-05-24 10:47:00,
2015-05-24 03:52:00,52.0,46.4,29.90,ESE,121,0.0,0.0,81,0.00,,---,0.00,VWS V13.01,2015-05-24 10:52:00,
2015-05-24 03:57:00,52.2,46.5,29.90,ESE,121,0.0,0.0,81,0.00,,---,0.00,VWS V13.01,2015-05-24 10:57:00,
2015-05-24 04:02:00,52.3,46.7,29.91,ESE,121,0.0,0.0,81,0.00,,---,0.00,VWS V13.01,2015-05-24 11:02:00,
2015-05-24 04:07:00,52.3,46.7,29.91,ESE,121,0.0,0.0,81,0.00,,---,0.00,VWS V13.01,2015-05-24 11:07:00,
2015-05-24 04:12:00,52.5,46.8,29.91,ESE,121,0.0,0.0,81,0.00,,---,0.00,VWS V13.01,2015-05-24 11:12:00,
2015-05-24 04:17:00,52.5,46.8,29.91,ESE,121,0.0,0.0,81,0.00,,---,0.00,VWS V13.01,2015-05-24 11:17:00,
2015-05-24 04:22:00,52.5,46.8,29.91,ESE,121,0.0,0.0,81,0.00,,---,0.00,VWS V13.01,2015-05-24 11:22:00,
2015-05-24 04:27:00,52.6,46.6,29.91,ESE,121,0.0,0.0,80,0.00,,---,0.00,VWS V13.01,2015-05-24 11:27:00,
2015-05-24 04:32:00,52.6,46.6,29.91,ESE,121,0.0,0.0,80,0.00,,---,0.00,VWS V13.01,2015-05-24 11:32:00,
2015-05-24 04:37:00,52.8,46.8,29.91,ESE,121,0.0,0.0,80,0.00,,---,0.00,VWS V13.01,2015-05-24 11:37:00,
2015-05-24 04:47:00,52.9,46.9,29.91,ESE,121,0.0,0.0,80,0.00,,---,0.00,VWS V13.01,2015-05-24 11:47:00,
2015-05-24 04:52:00,53.1,47.1,29.91,ESE,121,0.0,0.0,80,0.00,,---,0.00,VWS V13.01,2015-05-24 11:52:00,
2015-05-24 04:57:00,53.1,47.1,29.91,ESE,121,0.0,0.0,80,0.00,,---,0.00,VWS V13.01,2015-05-24 11:57:00,
2015-05-24 05:02:00,53.1,47.1,29.91,ESE,121,0.0,0.0,80,0.00,,---,0.00,VWS V13.01,2015-05-24 12:02:00,
2015-05-24 05:07:00,53.1,47.1,29.91,ESE,121,0.0,0.0,80,0.00,,---,0.00,VWS V13.01,2015-05-24 12:07:00,
2015-05-24 05:12:00,53.1,47.1,29.91,ESE,121,0.0,0.0,80,0.00,,---,0.00,VWS V13.01,2015-05-24 12:12:00,
2015-05-24 05:17:00,53.1,47.1,29.91,ESE,121,0.0,0.0,80,0.00,,---,0.00,VWS V13.01,2015-05-24 12:17:00,
2015-05-24 05:22:00,53.2,47.2,29.91,ESE,121,0.0,0.0,80,0.00,,---,0.00,VWS V13.01,2015-05-24 12:22:00,
2015-05-24 05:27:00,53.2,47.2,29.91,ESE,121,0.0,0.0,80,0.00,,---,0.00,VWS V13.01,2015-05-24 12:27:00,
2015-05-24 05:32:00,53.3,47.3,29.91,ESE,121,0.0,0.0,80,0.00,,---,0.00,VWS V13.01,2015-05-24 12:32:00,
2015-05-24 05:37:00,53.3,47.3,29.91,ESE,121,0.0,0.0,80,0.00,,---,0.00,VWS V13.01,2015-05-24 12:37:00,
2015-05-24 05:41:00,53.3,47.3,29.91,ESE,121,0.0,0.0,80,0.00,,---,0.00,VWS V13.01,2015-05-24 12:41:00,
2015-05-24 05:46:00,53.5,47.5,29.91,ESE,121,0.0,0.0,80,0.00,,---,0.00,VWS V13.01,2015-05-24 12:46:00,
2015-05-24 05:51:00,53.5,47.8,29.91,ESE,121,0.0,0.0,81,0.00,,---,0.00,VWS V13.01,2015-05-24 12:51:00,
2015-05-24 05:56:00,53.6,47.9,29.91,ESE,121,0.0,0.0,81,0.00,,---,0.00,VWS V13.01,2015-05-24 12:56:00,
2015-05-24 06:01:00,53.6,47.9,29.91,ESE,121,0.0,0.0,81,0.00,,---,0.00,VWS V13.01,2015-05-24 13:01:00,
2015-05-24 06:06:00,53.8,48.1,29.91,ESE,121,0.0,0.0,81,0.00,,---,0.00,VWS V13.01,2015-05-24 13:06:00,
2015-05-24 06:11:00,53.8,48.1,29.91,ESE,121,0.0,0.0,81,0.00,,---,0.00,VWS V13.01,2015-05-24 13:11:00,
2015-05-24 06:16:00,53.8,48.1,29.92,ESE,121,0.0,0.0,81,0.00,,---,0.00,VWS V13.01,2015-05-24 13:16:00,
2015-05-24 06:21:00,53.9,48.2,29.92,ESE,121,0.0,0.0,81,0.00,,---,0.00,VWS V13.01,2015-05-24 13:21:00,
2015-05-24 06:26:00,53.9,47.9,29.92,ESE,121,0.0,0.0,80,0.00,,---,0.00,VWS V13.01,2015-05-24 13:26:00,
2015-05-24 06:31:00,53.9,47.9,29.92,ESE,121,0.0,0.0,80,0.00,,---,0.00,VWS V13.01,2015-05-24 13:31:00,
2015-05-24 06:36:00,54.1,48.4,29.92,ESE,121,0.0,0.0,81,0.00,,---,0.00,VWS V13.01,2015-05-24 13:36:00,
2015-05-24 06:41:00,54.1,48.1,29.92,ESE,121,0.0,0.0,80,0.00,,---,0.00,VWS V13.01,2015-05-24 13:41:00,
2015-05-24 06:46:00,54.2,48.2,29.93,ESE,121,0.0,0.0,80,0.00,,---,0.00,VWS V13.01,2015-05-24 13:46:00,
2015-05-24 06:51:00,54.2,48.2,29.93,ESE,121,0.0,0.0,80,0.00,,---,0.00,VWS V13.01,2015-05-24 13:51:00,
2015-05-24 06:56:00,54.4,48.4,29.93,ESE,121,0.0,0.0,80,0.00,,---,0.00,VWS V13.01,2015-05-24 13:56:00,